Weather History for Nantucket, MA

Change the Weather History Date:

Friday, November 26, 2010

  Actual Average Record
Temperature  
Mean Temperature 47 °F -  
Max Temperature 55 °F 48 °F 61 °F (1979)
Min Temperature 39 °F 33 °F 18 °F (1970)
Degree Days  
Heating Degree Days 18    
Moisture  
Dew Point 42 °F    
Average Humidity 82    
Maximum Humidity 100    
Minimum Humidity 55    
Precipitation  
Precipitation 0.20 in - - ()
Sea Level Pressure  
Sea Level Pressure 29.61 in    
Wind  
Wind Speed 12 mph (West)    
Max Wind Speed 24 mph    
Max Gust Speed 32 mph    
Visibility 8 miles    
Events Rain    
Averages and records for this station are not official NWS values.
T = Trace of Precipitation, MM = Missing Value Source: NWS Daily Summary

Daily Weather History Graph

Daily Weather History Graph

Search for Another Location

Airport:

Trip Planner

Search our weather history database for the weather conditions in past years. The results will help you decide how hot, cold, wet, or windy it might be!

Date:

Astronomy

Nov. 26, 2010 Rise Set
Actual Time 6:41 AM EST 4:13 PM EST
Civil Twilight 6:10 AM EST 4:44 PM EST
Nautical Twilight 5:36 AM EST 5:18 PM EST
Astronomical Twilight 5:03 AM EST 5:51 PM EST
Moon 9:19 PM EST (11/26) 10:45 AM EST (11/26)
Length of Visible Light 10h 33m
Length of Day
9h 32m
Waning Gibbous, 73% of the Moon is Illuminated
Nov 26
Waning Gibbous
Nov 28
Last Quarter
Dec 5
New
Dec 13
First Quarter
Dec 21
Full

Hourly Weather History & Observations

Time (EST) Temp. Windchill Dew Point Humidity Pressure Visibility Wind Dir Wind Speed Gust Speed Precip Events Conditions
12:53 AM 39.9 °F - 27.0 °F 60% 29.95 in 10.0 mi Calm Calm - N/A   Overcast
1:53 AM 41.0 °F 39.0 °F 35.1 °F 79% 29.93 in 10.0 mi ESE 3.5 mph - 0.00 in Rain Light Rain
3:53 AM 43.0 °F 36.4 °F 39.0 °F 86% 29.81 in 10.0 mi SSE 12.7 mph - 0.00 in Rain Light Rain
4:27 AM 42.8 °F 34.5 °F 39.2 °F 87% 29.76 in 10.0 mi SE 18.4 mph - 0.00 in Rain Light Rain
4:53 AM 44.1 °F 35.9 °F 41.0 °F 89% 29.73 in 10.0 mi SE 19.6 mph 26.5 mph 0.00 in   Overcast
5:53 AM 46.0 °F 37.6 °F 42.1 °F 86% 29.69 in 10.0 mi SE 24.2 mph 32.2 mph N/A   Overcast
6:44 AM 46.4 °F 38.3 °F 44.6 °F 93% 29.63 in 6.0 mi SSE 23.0 mph 28.8 mph 0.01 in Rain Rain
6:53 AM 48.0 °F - 46.0 °F 93% 29.62 in 5.0 mi SE 23.0 mph 32.2 mph 0.02 in Rain Rain
7:53 AM 50.0 °F - 48.9 °F 96% 29.57 in 2.0 mi South 11.5 mph - 0.15 in Rain Light Rain
8:53 AM 55.9 °F - 54.0 °F 93% 29.54 in 2.0 mi SW 19.6 mph 26.5 mph 0.03 in Rain Light Rain
9:12 AM 55.4 °F - 55.4 °F 100% 29.52 in 4.0 mi SW 18.4 mph - 0.01 in   Overcast
10:53 AM 55.0 °F - 54.0 °F 96% 29.49 in 5.0 mi WSW 18.4 mph - N/A   Overcast
11:53 AM 55.0 °F - 53.1 °F 93% 29.47 in 7.0 mi WSW 19.6 mph 27.6 mph N/A   Overcast
12:14 PM 55.4 °F - 53.6 °F 94% 29.46 in 8.0 mi West 18.4 mph 26.5 mph 0.00 in Rain Light Rain
12:26 PM 55.4 °F - 53.6 °F 94% 29.45 in 9.0 mi WSW 17.3 mph 23.0 mph 0.00 in   Mostly Cloudy
12:53 PM 55.0 °F - 52.0 °F 89% 29.45 in 9.0 mi West 18.4 mph 28.8 mph 0.00 in   Partly Cloudy
1:53 PM 53.1 °F - 50.0 °F 89% 29.50 in 10.0 mi West 20.7 mph 28.8 mph 0.00 in   Mostly Cloudy
2:53 PM 52.0 °F - 48.9 °F 89% 29.52 in 9.0 mi West 16.1 mph - N/A   Partly Cloudy
3:53 PM 51.1 °F - 48.0 °F 89% 29.50 in 10.0 mi West 6.9 mph - N/A   Scattered Clouds
4:53 PM 51.1 °F - 46.9 °F 86% 29.54 in 10.0 mi WNW 6.9 mph - N/A   Overcast
5:13 PM 50.0 °F - 46.4 °F 87% 29.56 in 10.0 mi NNW 6.9 mph - N/A   Overcast
5:27 PM 48.2 °F - 44.6 °F 87% 29.56 in 10.0 mi North 6.9 mph - N/A   Overcast
5:35 PM 46.4 °F 41.5 °F 42.8 °F 87% 29.56 in 10.0 mi NNE 10.4 mph - N/A   Overcast
5:53 PM 46.9 °F - 42.1 °F 83% 29.56 in 10.0 mi North 8.1 mph - N/A   Overcast
6:53 PM 46.0 °F 39.0 °F 32.0 °F 58% 29.61 in 10.0 mi NW 17.3 mph - N/A   Overcast
7:53 PM 44.1 °F 37.1 °F 28.9 °F 55% 29.63 in 10.0 mi NW 15.0 mph 21.9 mph N/A   Scattered Clouds
8:53 PM 42.1 °F 35.2 °F 28.0 °F 58% 29.63 in 10.0 mi NW 12.7 mph - N/A   Clear
9:53 PM 41.0 °F 34.7 °F 26.1 °F 55% 29.62 in 10.0 mi NW 10.4 mph - N/A   Clear
10:53 PM 39.0 °F 33.4 °F 26.1 °F 60% 29.65 in 10.0 mi NW 8.1 mph - N/A   Clear
11:53 PM 39.0 °F 32.8 °F 25.0 °F 57% 29.65 in 10.0 mi NNW 9.2 mph - N/A   Clear